[[{"header":{"parameterUnit":"m.s-1","parameterCategory":1,"la1":30.2992,"la2":30.254,"lo1":-89.0895,"lo2":-89.0443,"dy":0.0025,"dx":0.0025,"nx":19,"ny":19,"refTime":"2026-03-07T03:00:00:Z","depth":0,"parameterNumber":2,"parameterNumberName":"U-component_of_WINDS"},"data":[0,0,0,-1.0048,-1.0049,-1.0116,-1.0117,-1.02,-1.0201,0,0,0,0,0,0,0,0,0,0,0,-1.0025,-1.0025,-1.0048,-1.0049,-1.0116,-1.0117,-1.02,-1.0201,0,0,0,0,0,0,0,0,0,0,0,-1.0025,-1.0025,-1.0026,-1.005,-1.0116,-1.0117,-1.02,-1.0151,0,0,0,0,0,0,0,0,0,0,-1.0086,-1.0061,-1.0025,-1.0026,-1.005,-1.0116,-1.0117,-1.0148,-1.0154,-1.0168,0,-1.0178,0,-1.0191,-1.0206,-1.0206,0,0,0,-1.0053,-1.0057,-1.0077,-1.0026,-1.0051,-1.0116,-1.0087,-1.0151,-1.0157,-1.0175,-1.018,-1.0183,-1.0192,-1.0207,-1.0207,-1.0275,-1.0275,0,0,-1.0049,-1.0036,-1.0073,-1.0081,-1.0068,-1.0085,-1.0089,-1.0155,-1.016,-1.018,-1.0185,-1.0193,-1.0207,-1.0208,-1.0275,-1.0275,0,0,0,-1.0036,-1.0033,-1.0052,-1.0077,-1.0089,-1.0087,-1.0092,-1.0157,-1.0164,-1.0186,-1.0194,-1.0208,-1.0208,-1.0275,-1.0275,-1.0269,0,0,0,-1.0034,-1.0026,-1.005,-1.0043,-1.0088,-1.0124,-1.0092,-1.016,-1.0167,-1.0194,-1.0208,-1.0209,-1.0275,-1.0275,-1.0269,-1.0269,0,0,0,-1.0022,-1.0024,-1.0032,-1.0042,-1.007,-1.0123,-1.0134,-1.0162,-1.0173,-1.0206,-1.0209,-1.0275,-1.0275,-1.0269,-1.0269,-1.0282,0,0,0,-1.0005,-1.0028,-1.0032,-1.0061,-1.007,-1.0118,-1.0134,-1.0171,-1.02,-1.0208,-1.0275,-1.0275,-1.0269,-1.0269,-1.0282,-1.029,-1.0293,0,0,-1.0027,-1.003,-1.0048,-1.0054,-1.0098,-1.0109,-1.0153,-1.0193,-1.021,-1.0253,-1.0255,-1.0269,-1.0269,-1.0282,-1.0312,-1.0314,0,0,0,-1.005,-1.0063,-1.0078,-1.0103,-1.0132,-1.0158,-1.0192,-1.0207,-1.0243,-1.0229,-1.0279,-1.0279,-1.0287,-1.0292,-1.0294,-1.0302,-1.0277,-1.0277,-1.0277,-1.0062,-1.008,-1.0111,-1.0137,-1.0161,-1.0195,-1.0218,-1.0244,-1.0257,-1.0268,-1.0281,-1.0297,-1.0302,-1.0303,-1.0311,-1.0288,-1.0288,-1.0288,-1.0288,-1.0094,-1.0114,-1.0129,-1.0164,-1.0184,-1.0215,-1.0249,-1.0257,-1.029,-1.0289,-1.0297,-1.0294,-1.0304,-1.0312,-1.0287,-1.0288,-1.0288,-1.0288,-1.0288,-1.0102,-1.0115,-1.0131,-1.0169,-1.0197,-1.0224,-1.0253,-1.0271,-1.0289,-1.0297,-1.0312,-1.0312,-1.0314,-1.0303,-1.0303,-1.0303,-1.0303,-1.0303,-1.0303,-1.0105,-1.0123,-1.0144,-1.0177,-1.0195,-1.0222,-1.0256,-1.0276,-1.0302,-1.0313,-1.0313,-1.0324,-1.0302,-1.0295,-1.0304,-1.0304,-1.0304,-1.0304,-1.0304,-1.0129,-1.0126,-1.0159,-1.0177,-1.0217,-1.0243,-1.0265,-1.0302,-1.0321,-1.0335,-1.0345,-1.0326,-1.0331,-1.033,-1.0325,-1.0341,-1.0341,-1.0341,-1.0341,-1.0136,-1.014,-1.0177,-1.0204,-1.0234,-1.0257,-1.0295,-1.0323,-1.0351,-1.0364,-1.0365,-1.036,-1.0358,-1.0365,-1.0363,-1.0358,-1.0383,-1.0383,-1.0383,-1.0152,-1.0159,-1.0187,-1.0212,-1.0245,-1.0273,-1.0309,-1.0342,-1.0374,-1.0385,-1.0375,-1.0373,-1.0365,-1.0361,-1.0371,-1.0368,-1.0359,0,0]},{"header":{"parameterUnit":"m.s-1","parameterCategory":1,"la1":30.2992,"la2":30.254,"lo1":-89.0895,"lo2":-89.0443,"dy":0.0025,"dx":0.0025,"nx":19,"ny":19,"refTime":"2026-03-07T03:00:00:Z","depth":0,"parameterNumber":3,"parameterNumberName":"V-component_of_WINDS"},"data":[0,0,0,2.7364,2.7366,2.7441,2.7441,2.7538,2.7539,0,0,0,0,0,0,0,0,0,0,0,2.734,2.734,2.7364,2.7366,2.7441,2.7441,2.7538,2.7539,0,0,0,0,0,0,0,0,0,0,0,2.734,2.734,2.7341,2.7366,2.7441,2.7442,2.7538,2.7481,0,0,0,0,0,0,0,0,0,0,2.7408,2.7383,2.734,2.7341,2.7367,2.7441,2.7442,2.7479,2.7485,2.7503,0,2.7517,0,2.7529,2.7545,2.7545,0,0,0,2.7368,2.7378,2.74,2.7341,2.7367,2.7441,2.7408,2.7482,2.7489,2.7511,2.7518,2.7522,2.7531,2.7546,2.7546,2.7643,2.7643,0,0,2.7364,2.7353,2.7395,2.7404,2.739,2.7405,2.741,2.7486,2.7494,2.7519,2.7524,2.7533,2.7546,2.7547,2.7642,2.7643,0,0,0,2.7351,2.735,2.737,2.74,2.7414,2.7408,2.7413,2.7491,2.7498,2.7526,2.7534,2.7547,2.7548,2.7642,2.7642,2.765,0,0,0,2.7348,2.7342,2.7368,2.7362,2.7412,2.7453,2.7415,2.7493,2.7502,2.7533,2.7547,2.7549,2.7641,2.7642,2.7649,2.7655,0,0,0,2.7336,2.734,2.735,2.7361,2.7393,2.7452,2.7464,2.7495,2.7507,2.7545,2.7549,2.7641,2.7642,2.7648,2.7654,2.7679,0,0,0,2.732,2.7355,2.735,2.7393,2.7392,2.7454,2.7463,2.751,2.7544,2.7547,2.7642,2.7642,2.7647,2.7653,2.7678,2.77,2.7707,0,0,2.7358,2.7359,2.7385,2.7383,2.7444,2.7444,2.7506,2.7548,2.7563,2.7616,2.7618,2.7649,2.7654,2.7679,2.7748,2.7754,0,0,0,2.7394,2.7413,2.7431,2.7463,2.7495,2.7525,2.7559,2.7575,2.762,2.7587,2.7664,2.7668,2.7683,2.7694,2.7699,2.7714,2.7646,2.7646,2.7646,2.7433,2.7449,2.7495,2.7521,2.7552,2.7587,2.7614,2.7643,2.765,2.7668,2.7684,2.7724,2.7737,2.774,2.7756,2.7695,2.7695,2.7696,2.7696,2.7492,2.7523,2.7533,2.7581,2.7599,2.764,2.7677,2.7681,2.7724,2.7713,2.7727,2.7715,2.7746,2.7761,2.7696,2.7696,2.7696,2.7696,2.7696,2.7521,2.7539,2.7557,2.7606,2.7643,2.7668,2.7709,2.7724,2.7739,2.7753,2.7774,2.7774,2.7778,2.7761,2.7761,2.7762,2.7762,2.7762,2.7762,2.7545,2.7565,2.7597,2.7636,2.766,2.7692,2.773,2.7754,2.7785,2.7793,2.7794,2.7801,2.7745,2.7731,2.7764,2.7764,2.7764,2.7763,2.7763,2.7602,2.7592,2.7641,2.7665,2.7713,2.775,2.7768,2.7817,2.784,2.786,2.7865,2.782,2.7823,2.7819,2.7808,2.7859,2.7859,2.7859,2.7859,2.7629,2.7631,2.7686,2.7723,2.7761,2.7784,2.7843,2.7873,2.7903,2.7919,2.7913,2.79,2.7895,2.7901,2.7896,2.7886,2.7955,2.7956,2.7956,2.7666,2.7673,2.7719,2.7747,2.7787,2.7821,2.7878,2.7923,2.7955,2.796,2.7932,2.7928,2.7907,2.7898,2.7904,2.7895,2.7877,0,0]}]]